Regional Weather Roundup
Issued by NWS

Home | Current Version | Previous Version | Text Only | Print | Product List | Glossary On
Versions: 1 2 3 4 5 6 7 8 9 10 11 12 13 14 15 16 17 18 19 20 21 22 23 24 25 26 27 28 29 30 31 32 33 34 35 36 37 38 39 40 41 42 43 44 45 46 47 48 49 50
000
ASUS43 KMKX 231510
RWRWI

WISCONSIN REGIONAL WEATHER ROUNDUP
NATIONAL WEATHER SERVICE MILWAUKEE/SULLIVAN WI
1000 AM CDT WED JUL 23 2014

NOTE: "FAIR" INDICATES FEW OR NO CLOUDS BELOW 12,000 FEET WITH NO
SIGNIFICANT WEATHER AND/OR OBSTRUCTIONS TO VISIBILITY.

WIZ001-002-006>008-014>016-023>028-231600-
NORTHWEST WISCONSIN

CITY           SKY/WX    TMP DP  RH WIND       PRES   REMARKS
SUPERIOR ARPT  MOSUNNY   68  57  68 NE5       30.24F
ASHLAND        SUNNY     67  57  70 VRB6      30.25
HAYWARD        MOSUNNY   71  55  56 N5        30.25
SIREN          SUNNY     68  56  64 N3        30.25S
RICE LAKE      SUNNY     71  56  59 NW5       30.24
LADYSMITH      MOSUNNY   68  59  72 CALM      30.27S
EAU CLAIRE     SUNNY     73  58  59 NE5       30.22F
MENOMONIE      SUNNY     73  54  51 NE3       30.23
NEW RICHMOND   SUNNY     72  58  61 W3        30.24F
OSCEOLA        SUNNY     70  60  69 NW3       30.27
$$

WIZ003>005-009-010-017-018-231600-
NORTH CENTRAL WISCONSIN

CITY           SKY/WX    TMP DP  RH WIND       PRES   REMARKS
WOODRUFF       MOSUNNY   67  59  75 CALM      30.26R
RHINELANDER    PTSUNNY   63  52  67 E3        30.26F
EAGLE RIVER    CLOUDY    61  49  65 CALM      30.26S
LAND O LAKES   MOSUNNY   63  50  63 N9        30.27
PHILLIPS       SUNNY     66  56  72 CALM      30.25
TOMAHAWK       PTSUNNY   64  54  68 CALM      30.26S
MEDFORD        PTSUNNY   66  56  70 CALM      30.25
MERRILL        MOSUNNY   65  55  70 E3        30.25S
$$

WIZ029-030-035-036-043>047-231600-
CENTRAL WISCONSIN

CITY           SKY/WX    TMP DP  RH WIND       PRES   REMARKS
WAUSAU         SUNNY     68  54  60 NE8       30.22F
MOSINEE        SUNNY     66  55  68 CALM      30.25S
MARSHFIELD       N/A    N/A N/A N/A MISG      30.23
STEVENS POINT  SUNNY     65  53  65 N3        30.23F
WAUPACA        SUNNY     71  50  47 N7        30.22
WAUTOMA        SUNNY     70  56  61 NE8       30.22F
WISC RAPIDS    SUNNY     71  54  54 N7        30.24
CAMP DOUGLAS   MOSUNNY   70  59  68 VRB3      30.23F
$$

WIZ011>013-019>022-031-037>040-048>050-231600-
NORTHEAST WISCONSIN

CITY           SKY/WX    TMP DP  RH WIND       PRES   REMARKS
ANTIGO         SUNNY     64  51  62 N7        30.25F
STURGEON BAY   MOSUNNY   63  52  67 N15       30.20S
GREEN BAY      SUNNY     70  51  51 N12       30.20S
MANITOWOC      SUNNY     68  51  54 N14       30.19S
APPLETON       MOSUNNY   66  52  59 N10       30.22S
CLINTONVILLE   SUNNY     68  50  52 N8        30.22S
OSHKOSH        SUNNY     69  53  56 N12       30.20
$$

WIZ032>034-041-042-053>061-231600-
SOUTHWEST WISCONSIN

CITY           SKY/WX    TMP DP  RH WIND       PRES   REMARKS
LA CROSSE      SUNNY     74  58  57 N5        30.23
SPARTA         SUNNY     71  55  58 NE5       30.25R
VIROQUA        FAIR      71  59  66 N5        30.25
BOSCOBEL       SUNNY     74  58  57 CALM      30.23
PRAIRIE DU CHI SUNNY     72  55  53 NE3       30.22
PLATTEVILLE    FAIR      72  58  61 NE7       30.23R
$$

WIZ056-057-062-063-064-067-068-231600-
SOUTH CENTRAL WISCONSIN

CITY           SKY/WX    TMP DP  RH WIND       PRES   REMARKS
BARABOO/DELLS  SUNNY     70  53  54 NE8       30.22
LONE ROCK      SUNNY     76  57  51 NE7       30.21F
WATERTOWN      MOSUNNY   69  58  67 N10       30.19
MADISON        MOSUNNY   72  57  59 NE14      30.20
MIDDLETON      FAIR      73  55  53 NE13      30.21
MONROE         SUNNY     70  55  60 N14       30.20S
JANESVILLE     MOSUNNY  N/A N/A N/A N8        30.18S
$$

WIZ051-052-058>065-066-070>072-231600-
SOUTHEAST WISCONSIN

CITY           SKY/WX    TMP DP  RH WIND       PRES   REMARKS
MILWAUKEE      MOSUNNY   66  55  67 NE15G23   30.18
WAUKESHA       MOSUNNY   66  54  63 NE12      30.19
MILWAUKEE/TIMM MOSUNNY   68  52  56 N12G17    30.19
RACINE         SUNNY     65  56  72 N18G24    30.19
BURLINGTON     SUNNY     67  55  64 NE10G17   30.17
KENOSHA        SUNNY     68  56  65 NE13      30.18
FOND DU LAC    SUNNY     70  54  56 N12       30.21S
SHEBOYGAN      SUNNY     69  53  56 N10       30.18
WEST BEND      SUNNY     68  50  52 N15       30.18F
JUNEAU         MOSUNNY   68  53  57 N14G21    30.21F
$$

LSZ147-162-231600-
LAKE SUPERIOR

STATION/POSITION TIME  TEMP    WIND        PRES    WAVE
                       AIR SEA DIR/SP/G            HT/PER
                 (UTC) (F)     (DEG/KT/KT) (MB)    (FT/S)
$$

LMZ867-665-643>646-231600-
LAKE MICHIGAN

STATION/POSITION TIME  TEMP    WIND        PRES    WAVE
                       AIR SEA DIR/SP/G            HT/PER
                 (UTC) (F)     (DEG/KT/KT) (MB)    (FT/S)
$$

TC  - TEMPERATURE IN CELSIUS
VSB - VISIBILITY IN STATUTE MILES
WCI - WIND CHILL INDEX
HX  - HEAT INDEX



USA.gov is the U.S. government's official web portal to all federal, state and local government web resources and services.